RH
8 7 8 10 13 17 21 34 100 100 100 100 100 100 100 100 100 100 100 100 100 100 100 100 100 100 100 100 100 100 100 100 86 94 98 100 100 100 100 98 88 83 68
6 7 8 9 13 17 27 100 100 100 100 100 100 100 100 100 100 100 100 100 100 100 100 100 99 100 100 100 100 94 95 100 97 100 100 100 100 100 100 97 86 69 63
5 6 8 10 15 48 75 100 100 100 100 100 100 100 100 100 100 100 100 100 100 100 100 100 100 100 100 100 100 100 100 100 100 100 100 100 100 100 100 100 89 69 49
5 7 10 12 15 26 73 100 100 100 100 100 100 100 100 100 100 100 100 100 100 100 100 100 100 100 100 100 100 100 100 98 100 100 100 100 99 100 99 84 62 46 45
6 8 14 20 22 29 54 100 100 100 100 100 100 100 100 100 100 100 100 100 100 100 100 100 100 100 100 100 99 91 85 95 86 100 100 100 100 97 76 75 61 67 61
10 17 60 87 66 100 85 71 88 84 90 100 100 100 100 100 100 100 100 100 100 99 94 100 98 100 100 100 100 100 100 99 94 94 100 100 100 100 100 88 91 82 76
48 84 100 100 100 100 51 49 73 100 100 100 100 100 100 100 100 100 100 100 100 80 90 100 100 100 100 100 100 100 100 100 100 100 100 100 98 89 90 92 85 90 78
100 100 100 100 94 100 83 100 100 100 100 100 100 100 100 100 100 100 100 100 100 100 96 80 78 80 100 100 100 100 99 100 100 100 100 100 100 100 100 96 93 96 73
100 100 100 100 100 100 100 100 100 100 100 100 100 100 100 100 100 100 100 100 100 100 100 100 100 97 94 98 90 99 100 100 100 100 100 100 100 100 100 92 100 68 94
100 100 100 100 100 100 100 100 100 100 100 100 100 100 100 99 100 100 100 100 100 99 100 99 100 99 100 100 100 87 96 92 100 100 100 100 100 100 100 100 83 88 100
100 100 100 100 100 100 100 100 100 100 100 100 100 100 100 100 100 100 100 100 100 100 100 98 98 85 92 85 91 100 89 100 100 100 100 100 98 99 96 100 100 82 100
100 100 100 100 100 100 100 100 100 100 100 100 100 100 100 100 100 100 100 100 100 100 100 100 100 100 100 100 100 100 100 100 100 99 100 100 94 99 94 97 100 99 100
100 100 100 100 100 100 100 100 100 100 100 100 100 100 100 100 100 100 100 100 100 100 100 100 100 100 100 100 100 100 100 100 100 100 100 100 100 100 100 100 100 100 100
100 100 100 100 100 100 100 100 100 100 100 100 100 100 100 100 100 100 100 100 100 100 98 100 100 100 100 100 100 99 100 100 100 100 100 100 100 100 100 100 100 100 100
100 100 100 100 100 100 100 100 100 100 100 100 100 100 100 100 100 100 100 100 100 100 100 100 100 100 100 100 100 100 100 100 100 100 100 100 100 100 99 98 100 100 90
100 100 100 100 100 100 100 100 100 100 100 100 100 100 100 100 100 100 100 100 100 100 100 98 100 100 100 100 100 100 100 100 88 85 100 88 98 85 100 100 100 90 100
96 100 100 99 100 100 100 100 100 100 100 100 100 100 100 100 100 100 94 90 100 100 100 100 100 100 100 92 100 100 100 100 100 87 100 100 100 99 100 100 100 96 89
76 100 100 100 100 100 100 100 100 100 100 100 100 100 100 100 96 96 97 96 99 84 80 100 100 100 100 100 100 100 100 100 100 100 100 100 100 100 100 100 100 100 100
55 57 78 100 100 100 100 100 100 100 100 100 100 100 100 100 100 100 100 100 99 100 93 100 100 100 100 100 100 100 97 99 100 100 100 100 100 100 100 100 100 100 97
29 42 40 40 43 51 72 91 90 92 93 95 97 99 99 97 98 94 90 93 88 86 72 58 56 60 62 56 53 72 90 100 100 81 100 100 100 86 81 82 74 99 98
41 35 36 37 34 35 37 36 37 41 38 45 56 76 84 86 80 81 75 68 71 69 68 78 83 74 77 88 73 84 70 65 84 100 100 100 87 77 69 62 61 60 95
43 45 45 41 39 34 31 32 24 22 24 25 29 35 38 44 51 58 58 37 31 35 35 44 42 46 56 69 68 66 70 67 67 58 54 68 76 69 86 100 100 98 100
51 52 46 49 37 36 30 27 21 15 12 13 12 12 14 20 25 26 26 25 24 22 19 15 14 20 28 44 49 60 45 40 54 61 61 68 80 87 76 58 72 93 100
50 56 51 40 37 33 29 21 14 10 8 7 7 7 6 7 8 7 11 13 14 17 18 20 19 19 20 18 16 15 15 16 19 23 25 30 36 20 21 29 33 45 52
47 52 48 38 37 32 19 12 6 4 4 4 4 4 3 3 3 3 3 4 4 5 5 7 11 14 15 15 15 16 19 20 21 22 22 21 23 25 28 31 39 41 43
45 42 38 32 28 16 10 5 3 3 3 3 3 3 3 3 3 2 3 2 2 3 3 3 3 4 5 6 8 9 10 14 18 19 21 22 25 31 41 50 51 55 61
Wind_Speed
64 57 58 64 67 74 77 78 80 83 68 73 71 73 76 74 62 66 63 61 64 65 57 60 61 62 64 60 63 63 61 63 61 60 62 63 62 65 59 60 65 59 65
64 63 65 69 72 76 78 78 78 71 70 66 70 70 77 71 62 67 68 61 62 57 61 66 63 67 67 67 66 68 64 64 60 58 60 65 66 66 68 71 70 71 73
66 69 71 76 78 81 76 70 83 88 75 79 76 81 81 77 70 68 62 59 64 65 67 65 65 64 65 67 66 60 62 65 63 64 64 66 68 69 75 76 75 77 80
68 71 75 76 80 84 87 92 84 89 90 88 81 82 79 77 79 75 63 66 66 63 61 61 61 57 63 65 67 67 68 66 65 67 69 68 70 74 79 80 82 87 84
68 73 77 79 83 86 89 88 87 88 89 84 85 85 83 81 86 82 82 78 75 72 70 70 68 66 64 68 72 73 73 74 70 69 71 74 75 77 78 77 88 85 77
72 71 76 85 90 95 95 95 96 86 91 90 87 93 82 83 87 83 87 87 87 78 72 77 78 74 75 72 70 69 71 72 74 77 77 80 81 80 71 78 83 82 87
71 72 83 97 94 98 92 88 88 85 93 96 90 94 83 86 92 96 93 91 87 82 79 79 79 81 81 80 75 72 74 75 76 79 80 85 83 86 88 83 79 87 92
72 72 78 87 93 94 88 81 83 99 106 107 102 102 97 90 96 98 102 98 91 85 87 85 88 83 83 79 75 82 85 83 85 87 88 87 87 89 90 86 94 94 96
75 70 79 80 85 88 86 84 92 101 101 100 95 101 97 99 98 98 100 98 93 88 89 90 92 90 89 91 93 87 86 87 87 88 89 90 91 92 93 96 94 99 97
83 67 73 83 87 89 93 93 100 103 98 101 101 99 102 104 102 102 98 96 95 92 90 93 93 90 86 89 93 90 87 91 95 95 93 93 90 91 93 96 100 99 97
76 73 73 81 76 83 94 104 97 99 101 99 93 101 108 106 107 106 104 104 107 106 105 105 106 110 107 109 107 95 90 91 92 96 93 95 95 99 99 100 99 101 103
81 74 72 81 80 77 85 94 102 103 110 105 107 103 103 100 101 109 110 111 110 113 107 104 101 98 99 94 97 100 99 97 97 99 95 97 102 101 101 100 98 102 101
78 70 75 83 83 99 93 92 94 105 108 106 110 101 101 106 105 103 109 115 99 108 105 97 99 105 105 104 101 102 105 105 102 101 101 97 97 102 105 107 104 108 106
93 80 77 89 89 86 102 104 109 107 108 103 104 104 99 102 107 113 110 108 102 100 107 101 102 103 102 107 102 104 102 105 104 105 106 104 107 110 112 113 112 109 109
94 96 101 89 99 100 97 108 111 110 115 113 111 108 107 107 105 106 110 112 113 110 108 106 108 113 107 106 105 103 105 107 107 107 111 111 105 112 115 114 113 114 110
92 93 93 92 104 108 103 104 107 113 113 111 118 118 117 118 121 120 115 116 115 111 116 119 114 108 107 107 116 117 117 119 120 120 118 118 117 115 115 115 114 113 111
88 89 91 98 94 109 104 108 109 117 117 123 123 124 122 127 126 127 132 137 128 120 118 118 117 117 126 124 119 119 120 124 127 128 124 125 123 120 117 117 123 126 130
38 80 93 90 88 94 101 112 116 117 126 123 124 129 130 131 135 137 140 141 139 143 146 140 133 134 137 135 128 125 124 127 125 125 126 128 129 126 133 132 134 133 131
17 25 34 60 71 78 83 92 105 110 118 122 133 128 134 136 141 145 148 145 147 148 151 150 150 151 148 145 143 147 152 143 137 132 132 137 137 138 137 136 141 147 152
27 16 31 32 43 50 67 90 84 97 110 120 129 136 138 146 141 143 156 158 157 160 166 172 172 173 172 175 163 164 161 158 152 150 153 152 150 150 155 158 165 162 158
47 46 45 44 38 43 48 55 63 79 83 94 123 146 149 143 154 155 160 161 167 165 165 168 167 167 169 167 168 168 167 166 165 166 164 165 167 161 165 165 165 162 158
58 58 58 59 59 60 60 56 72 77 82 91 90 101 105 119 141 154 157 157 157 161 163 167 173 181 177 177 177 171 168 172 170 171 174 171 175 171 163 163 163 158 159
67 66 67 71 72 70 67 70 76 79 79 99 101 100 99 115 118 120 126 132 136 139 140 142 139 136 141 166 175 178 171 163 177 176 169 168 163 161 175 173 175 162 158
75 76 79 77 80 75 75 77 77 79 83 88 91 97 104 119 121 125 131 133 128 131 133 135 133 133 135 137 137 135 133 132 131 134 139 144 148 144 140 131 127 128 129
80 81 88 87 88 84 80 78 75 73 73 76 80 84 87 89 92 96 98 101 107 114 118 119 127 131 127 128 128 128 128 128 130 131 131 129 129 127 126 120 111 111 108
90 93 92 93 91 87 82 78 72 68 65 63 64 67 71 74 76 77 80 82 83 85 88 92 95 100 104 110 112 114 116 117 120 120 122 121 118 111 104 101 98 97 94
Wind_Direction
229 223 215 217 215 213 211 210 209 215 215 217 217 219 221 226 234 242 251 251 248 249 249 247 251 253 255 258 258 262 267 268 271 269 269 269 266 263 271 274 281 287 291
224 221 216 215 212 210 210 202 207 211 207 216 220 219 224 229 234 240 245 248 246 243 242 248 254 256 257 256 256 262 265 265 267 268 268 268 264 267 274 276 281 284 287
217 217 215 212 203 203 205 206 213 214 209 217 223 221 225 231 233 237 241 244 243 239 242 248 254 258 257 259 259 256 261 262 265 266 264 264 267 270 274 278 282 282 285
215 211 211 209 205 202 198 205 210 217 221 221 223 228 227 229 233 241 233 238 237 232 238 237 241 244 248 246 249 252 255 257 263 263 264 264 266 270 274 278 279 281 285
209 206 202 200 200 205 203 200 213 217 225 226 227 230 228 232 235 237 240 235 232 233 238 235 239 241 250 251 250 253 258 259 263 262 265 270 273 273 275 271 279 281 281
199 193 192 200 199 199 208 209 217 218 221 225 226 227 233 234 235 238 237 234 235 235 239 237 238 241 243 251 252 257 260 259 262 263 263 266 272 275 271 281 281 282 291
189 187 190 199 200 205 210 213 213 212 223 223 225 225 230 235 234 235 237 237 240 237 241 240 245 244 248 247 251 257 259 264 264 262 264 268 268 271 276 276 281 283 288
177 190 193 203 206 206 209 203 213 219 222 226 228 229 233 232 236 238 239 242 244 244 246 246 251 250 249 253 256 256 261 259 261 264 267 271 273 274 275 275 283 283 286
181 190 195 199 202 206 210 206 212 215 219 225 229 232 231 234 236 239 244 245 245 245 244 247 250 249 255 255 259 255 256 259 261 264 268 270 273 275 274 279 278 284 281
186 192 194 200 205 206 206 209 209 214 221 226 228 229 234 233 237 241 244 247 247 247 250 248 246 248 251 254 258 258 257 260 262 264 265 268 270 274 273 275 280 279 278
186 194 201 199 206 210 208 211 216 222 222 229 235 236 238 241 240 243 247 248 252 256 257 260 258 256 256 259 261 260 263 260 260 262 264 266 268 271 274 274 275 280 277
199 198 207 207 210 212 215 214 217 224 228 230 235 240 241 243 245 248 250 252 258 259 260 257 258 256 256 254 257 261 264 266 267 267 267 267 270 271 272 272 272 273 272
199 207 212 211 214 216 216 218 223 226 230 233 236 239 243 246 247 247 251 253 251 254 256 255 257 257 257 259 259 261 262 266 264 263 265 267 267 267 269 272 270 273 271
205 211 217 214 217 221 222 224 225 228 228 232 236 235 238 243 246 248 246 247 245 249 252 248 250 254 253 257 260 261 260 262 261 262 265 266 268 268 271 274 274 274 273
209 215 218 220 220 222 225 223 225 227 229 232 234 235 238 240 241 242 245 246 245 246 248 248 249 252 255 253 255 256 259 262 262 261 263 268 266 266 270 272 272 270 277
212 215 217 221 227 226 230 229 230 231 231 235 238 242 243 244 244 243 244 245 246 247 248 247 248 250 250 254 257 257 257 260 260 263 261 264 267 267 266 267 269 273 274
222 220 222 229 232 230 237 235 236 236 237 237 238 239 243 244 245 245 247 248 247 247 250 250 251 252 254 257 256 254 257 257 260 265 262 265 266 266 264 264 269 271 275
240 237 234 237 242 240 242 244 242 244 240 242 244 244 244 246 247 249 250 249 250 251 252 251 251 254 255 254 256 255 254 255 255 259 259 261 262 261 263 266 268 269 270
251 240 240 245 252 255 257 257 253 253 255 252 247 251 250 251 251 252 250 252 252 254 253 252 251 253 256 257 256 260 262 258 256 256 257 261 264 261 262 265 268 271 274
345 278 264 262 257 258 256 253 257 260 261 260 257 257 256 255 257 259 255 255 255 258 257 253 254 257 256 258 261 260 258 259 259 261 262 264 264 265 267 268 271 273 275
342 337 328 326 310 299 299 265 258 255 257 259 258 254 254 256 257 258 259 259 258 258 258 257 259 262 259 258 257 260 261 265 261 259 263 266 267 266 268 270 271 272 274
339 334 331 329 322 316 306 294 266 270 261 258 257 254 256 255 255 256 258 261 260 259 260 260 260 260 259 258 261 262 263 265 264 264 264 266 265 267 270 270 269 270 270
335 334 331 326 322 316 306 300 292 281 276 261 262 262 262 257 255 257 258 260 261 261 261 261 262 262 262 260 260 260 264 265 264 263 263 264 264 265 269 271 268 269 271
333 330 327 324 324 317 309 301 293 285 279 275 271 266 266 261 260 261 258 256 259 261 263 264 266 265 263 262 262 263 264 265 267 267 266 267 267 269 270 271 271 271 271
333 329 327 328 325 319 312 305 297 290 284 278 274 272 271 269 267 267 266 264 262 262 262 261 260 261 263 264 265 265 264 264 265 265 267 268 269 269 270 271 271 271 272
335 332 330 330 328 323 317 310 306 299 292 287 281 277 274 273 271 269 267 267 265 264 263 263 262 261 260 261 262 264 264 264 264 264 265 266 267 268 269 270 270 268 266